Flag for Germany Weather past 2 weeks in Landsberg am Lech, Bavaria, Germany

Now
41 °F

Scattered clouds.


Feels Like: 39 °F
Forecast: 27 / 47 °F
Wind: 3 mph from North

Location: Landsberg

Current Time: Mar 6, 2015 at 3:11:02 PM

Latest Report: Mar 6, 2015 at 2:20 PM


Visibility: N/A

Pressure: 30.57 "Hg

Humidity: 49%

Dew point: 23 °F

Location of Landsberg am LechLocation

Historic Weather in Landsberg am Lech — Graph

°F

Landsberg am Lech temperature yesterday

Maximum temperature yesterday: 37 °F (at 4:20 PM)
Minimum temperature yesterday: 30 °F (at 5:20 AM)
Average temperature yesterday: 33 °F

Past Weeks' High & Low Weather Summary

 TemperatureHumidityPressure
High52 °F (Feb 20, 2:20 PM)100% (Feb 22, 12:20 AM)30.60 "Hg (Feb 22, 12:20 AM)
Low19 °F (Feb 23, 6:20 AM)28% (Feb 20, 2:20 PM)29.47 "Hg (Feb 21, 1:20 PM)
Average34 °F80%29.98 "Hg
* Reported Feb 19 1:00 PM — Mar 6 1:20 PM, Landsberg am Lech, Weather by CustomWeather, © 2015

Note: Actual official high and low records may vary slightly from our data, if they occured in-between our weather recording intervals... More about our weather records

Advertising

Landsberg am Lech weather history for previous 24 hours

 ConditionsComfort  
Time TempWeatherWind HumidityBarometerVisibility
1:20 PM
Fri, Mar 6
41 °FScattered clouds.3 mph53%30.57 "HgN/A
12:20 PM39 °FScattered clouds.3 mph48%30.60 "HgN/A
11:20 AM37 °FPartly sunny.3 mph65%30.60 "HgN/A
10:20 AM37 °FPartly sunny.2 mph65%30.60 "HgN/A
9:20 AM34 °FPartly sunny.6 mph75%30.60 "HgN/A
8:20 AM30 °FPartly sunny.5 mph80%30.60 "HgN/A
7:20 AM28 °FPassing clouds.3 mph86%30.57 "HgN/A
6:20 AM27 °FPassing clouds.2 mph93%30.57 "HgN/A
5:20 AM28 °FPassing clouds.5 mph86%30.57 "HgN/A
4:20 AM28 °FPassing clouds.2 mph86%30.57 "HgN/A
3:20 AM30 °FPassing clouds.5 mph86%30.57 "HgN/A
2:20 AM30 °FPassing clouds.3 mph80%30.57 "HgN/A
1:20 AM32 °FPassing clouds.1 mph80%30.57 "HgN/A
12:20 AM32 °FPassing clouds.5 mph80%30.57 "HgN/A
11:20 PM
Thu, Mar 5
32 °FPassing clouds.5 mph75%30.57 "HgN/A
10:20 PM32 °FPassing clouds.2 mph80%30.57 "HgN/A
9:20 PM32 °FPassing clouds.3 mph75%30.57 "HgN/A
8:20 PM32 °FPassing clouds.5 mph75%30.54 "HgN/A
7:20 PM34 °FPassing clouds.5 mph65%30.54 "HgN/A
6:20 PM34 °FPassing clouds.3 mph65%30.51 "HgN/A
5:20 PM36 °FPartly sunny.6 mph65%30.51 "HgN/A
4:20 PM37 °FBroken clouds.6 mph60%30.51 "HgN/A
3:20 PM36 °FBroken clouds.7 mph65%30.48 "HgN/A
Weather by CustomWeather, © 2015

See weather overviewHow to use our weather pages